Grand Forks AFB, ND

9:17 AM CDT on March 28, 2017 (GMT -0500)
Grand Forks Air Force Base

Weather History for KRDR - March, 2013

Change the Weather History Date:

Friday, March 22, 2013

  Actual Average Record
Temperature  
Mean Temperature 4 °F -  
Max Temperature 17 °F 35 °F 66 °F (2012)
Min Temperature -9 °F 18 °F -9 °F (2013)
Degree Days  
Heating Degree Days 62    
Moisture  
Dew Point -5 °F    
Average Humidity 78    
Maximum Humidity 85    
Minimum Humidity 68    
Precipitation  
Precipitation 0.00 in - - ()
Sea Level Pressure  
Sea Level Pressure 30.15 in    
Wind  
Wind Speed 5 mph (NNW)    
Max Wind Speed 7 mph    
Max Gust Speed -    
Visibility 10 miles    
Events Snow    
Averages and records for this station are not official NWS values.
T = Trace of Precipitation, MM = Missing Value Source: NWS Daily Summary

Daily Weather History Graph

Daily Weather History Graph

Search for Another Location

Airport or City:

Trip Planner

Search our weather history database for the weather conditions in past years. The results will help you decide how hot, cold, wet, or windy it might be!

Date:

Astronomy

Mar. 22, 2013 Rise Set
Actual Time 7:27 AM CDT 7:45 PM CDT
Civil Twilight 6:56 AM CDT 8:16 PM CDT
Nautical Twilight 6:20 AM CDT 8:53 PM CDT
Astronomical Twilight 5:42 AM CDT 9:31 PM CDT
Moon 2:56 PM CDT (3/22) 4:48 AM CDT (3/22)
Length of Visible Light 13h 19m
Length of Day
12h 17m
Waxing Gibbous, 77% of the Moon is Illuminated
Mar 22
Waxing Gibbous
Mar 27
Full
Apr 2
Last Quarter
Apr 10
New
Apr 18
First Quarter

Hourly Weather History & Observations

Time (CDT) Temp. Windchill Dew Point Humidity Pressure Visibility Wind Dir Wind Speed Gust Speed Precip Events Conditions
12:08 AM -0.4 °F -10.4 °F -5.8 °F 78% 30.17 in 10.0 mi NNW 4.6 mph - N/A   Clear
12:55 AM -3.3 °F -11.6 °F -8.1 °F 80% 30.16 in 10.0 mi NW 3.5 mph - 0.00 in   Clear
1:17 AM -4.0 °F -12.4 °F -9.4 °F 78% 30.16 in 10.0 mi NNW 3.5 mph - N/A Snow Light Snow
1:27 AM -5.8 °F -16.7 °F -9.4 °F 84% 30.15 in 10.0 mi NW 4.6 mph - N/A   Clear
1:30 AM -5.8 °F -16.7 °F -9.4 °F 84% 30.15 in 10.0 mi NW 4.6 mph - N/A Snow Light Snow
1:55 AM -4.9 °F -18.8 °F -9.8 °F 80% 30.16 in 10.0 mi NW 6.9 mph - 0.00 in   Clear
2:55 AM -4.0 °F - -8.7 °F 80% 30.15 in 10.0 mi Calm Calm - N/A   Clear
3:53 AM -7.6 °F -20.6 °F -13.0 °F 77% 30.15 in 10.0 mi NW 5.8 mph - N/A Snow Light Snow
3:55 AM -8.0 °F -21.0 °F -13.2 °F 78% 30.15 in 10.0 mi WNW 5.8 mph - N/A   Clear
4:04 AM -7.6 °F -18.8 °F -13.0 °F 77% 30.15 in 10.0 mi NW 4.6 mph - N/A   Clear
4:13 AM -7.6 °F -18.8 °F -13.0 °F 77% 30.15 in 10.0 mi NW 4.6 mph - N/A Snow Light Snow
4:24 AM -7.6 °F -18.8 °F -11.2 °F 84% 30.14 in 10.0 mi NNW 4.6 mph - N/A   Clear
4:51 AM -7.6 °F -18.8 °F -13.0 °F 77% 30.14 in 10.0 mi NW 4.6 mph - N/A Snow Light Snow
5:00 AM -7.6 °F -18.8 °F -13.0 °F 77% 30.14 in 10.0 mi NW 4.6 mph - N/A   Clear
5:02 AM -7.6 °F -18.8 °F -13.0 °F 77% 30.14 in 10.0 mi NW 4.6 mph - N/A Snow Light Snow
5:13 AM -9.4 °F -20.9 °F -14.8 °F 77% 30.14 in 10.0 mi NW 4.6 mph - N/A   Clear
5:43 AM -7.6 °F -16.5 °F -13.0 °F 77% 30.14 in 10.0 mi NW 3.5 mph - N/A Snow Light Snow
5:55 AM -7.2 °F -18.3 °F -12.3 °F 79% 30.14 in 10.0 mi NNW 4.6 mph - 0.00 in Snow Light Snow
5:56 AM -7.6 °F -18.8 °F -13.0 °F 77% 30.14 in 10.0 mi NNW 4.6 mph - N/A   Clear
6:41 AM -7.6 °F -18.8 °F -13.0 °F 77% 30.14 in 10.0 mi NNE 4.6 mph - N/A Snow Light Snow
6:50 AM -9.4 °F -18.6 °F -14.8 °F 77% 30.14 in 10.0 mi North 3.5 mph - N/A   Clear
6:55 AM -9.2 °F - -15.2 °F 75% 30.14 in 10.0 mi Calm Calm - 0.00 in   Clear
7:17 AM -7.6 °F -18.8 °F -13.0 °F 77% 30.14 in 10.0 mi NNW 4.6 mph - N/A Snow Light Snow
7:36 AM -7.6 °F -18.8 °F -13.0 °F 77% 30.14 in 10.0 mi NW 4.6 mph - N/A   Clear
7:55 AM -6.9 °F -17.9 °F -11.7 °F 79% 30.15 in 10.0 mi NNW 4.6 mph - 0.00 in   Clear
8:55 AM -2.2 °F -14.2 °F -7.1 °F 80% 30.14 in 10.0 mi North 5.8 mph - N/A   Clear
9:16 AM -0.4 °F -13.4 °F -4.0 °F 85% 30.14 in 10.0 mi NNE 6.9 mph - N/A Snow Light Snow
9:47 AM 3.2 °F -7.8 °F -0.4 °F 85% 30.14 in 10.0 mi North 5.8 mph - N/A   Clear
9:55 AM 3.4 °F -4.0 °F -0.9 °F 82% 30.14 in 10.0 mi North 3.5 mph - 0.00 in   Clear
10:55 AM 5.4 °F -5.2 °F 1.2 °F 83% 30.13 in 10.0 mi North 5.8 mph - N/A   Clear
11:55 AM 7.0 °F -1.7 °F 2.7 °F 82% 30.14 in 10.0 mi NNW 4.6 mph - N/A   Clear
12:55 PM 10.0 °F -0.9 °F 3.4 °F 74% 30.13 in 10.0 mi North 6.9 mph - N/A   Clear
1:55 PM 13.3 °F 7.3 °F 5.4 °F 71% 30.14 in 10.0 mi North 3.5 mph - N/A   Clear
2:55 PM 15.6 °F 7.0 °F 7.2 °F 69% 30.13 in 10.0 mi North 5.8 mph - N/A   Clear
3:55 PM 16.9 °F 8.5 °F 8.1 °F 68% 30.13 in 10.0 mi North 5.8 mph - N/A   Clear
4:55 PM 16.9 °F 9.8 °F 8.8 °F 71% 30.13 in 10.0 mi North 4.6 mph - N/A   Clear
5:55 PM 16.3 °F 7.8 °F 9.0 °F 73% 30.14 in 10.0 mi NNE 5.8 mph - N/A   Clear
6:55 PM 14.5 °F 5.7 °F 7.7 °F 74% 30.14 in 10.0 mi North 5.8 mph - N/A   Clear
7:55 PM 11.3 °F 3.3 °F 6.1 °F 80% 30.15 in 10.0 mi North 4.6 mph - N/A   Clear
8:55 PM 8.8 °F 0.4 °F 4.1 °F 81% 30.16 in 10.0 mi North 4.6 mph - N/A   Clear
9:55 PM 7.7 °F -0.9 °F 2.8 °F 81% 30.17 in 10.0 mi NNW 4.6 mph - N/A   Clear
10:23 PM 6.8 °F -3.5 °F 1.4 °F 79% 30.18 in 10.0 mi NW 5.8 mph - N/A Snow Light Snow
10:46 PM 8.6 °F -2.6 °F 3.2 °F 79% 30.18 in 10.0 mi NW 6.9 mph - N/A   Clear
10:55 PM 7.9 °F -3.5 °F 3.0 °F 81% 30.18 in 10.0 mi NNW 6.9 mph - 0.00 in   Clear
11:55 PM 9.5 °F 1.2 °F 3.7 °F 77% 30.18 in 10.0 mi NNW 4.6 mph - N/A   Clear